TimeCST,TemperatureF,Dew PointF,Humidity,Sea Level PressureIn,VisibilityMPH,Wind Direction,Wind SpeedMPH,Gust SpeedMPH,PrecipitationIn,Events,Conditions,WindDirDegrees,DateUTC
12:13 AM,-5.8,-11.2,77,29.92,10.0,WSW,3.5,-,N/A,,Clear,240,2013-12-10 06:13:00
12:34 AM,-5.8,-11.2,77,29.91,10.0,Calm,Calm,-,N/A,,Scattered Clouds,0,2013-12-10 06:34:00
12:53 AM,-5.8,-11.2,77,29.89,10.0,Calm,Calm,-,N/A,,Overcast,0,2013-12-10 06:53:00
1:14 AM,-4.0,-11.2,71,29.88,10.0,Calm,Calm,-,N/A,,Overcast,0,2013-12-10 07:14:00
1:33 AM,-4.0,-11.2,71,29.87,10.0,Calm,Calm,-,N/A,,Overcast,0,2013-12-10 07:33:00
1:53 AM,-4.0,-9.4,78,29.86,4.0,Calm,Calm,-,N/A,Snow,Light Snow,0,2013-12-10 07:53:00
2:13 AM,-2.2,-9.4,71,29.85,5.0,Calm,Calm,-,N/A,Snow,Light Snow,0,2013-12-10 08:13:00
2:33 AM,-2.2,-9.4,71,29.85,7.0,Calm,Calm,-,N/A,Snow,Light Snow,0,2013-12-10 08:33:00
2:54 AM,-2.2,-9.4,71,29.84,4.0,Calm,Calm,-,N/A,Snow,Light Snow,0,2013-12-10 08:54:00
3:13 AM,-2.2,-7.6,78,29.84,7.0,Calm,Calm,-,N/A,Snow,Light Snow,0,2013-12-10 09:13:00
3:33 AM,-2.2,-7.6,78,29.83,4.0,Calm,Calm,-,N/A,Snow,Light Snow,0,2013-12-10 09:33:00
3:53 AM,-2.2,-7.6,78,29.84,4.0,Calm,Calm,-,N/A,Snow,Light Snow,0,2013-12-10 09:53:00
4:13 AM,-0.4,-5.8,78,29.84,2.5,Calm,Calm,-,N/A,Snow,Light Snow,0,2013-12-10 10:13:00
4:34 AM,-2.2,-7.6,78,29.83,4.0,Calm,Calm,-,N/A,Snow,Light Snow,0,2013-12-10 10:34:00
4:53 AM,-2.2,-7.6,78,29.84,7.0,Calm,Calm,-,N/A,,Overcast,0,2013-12-10 10:53:00
5:13 AM,-2.2,-7.6,78,29.84,10.0,Calm,Calm,-,N/A,,Overcast,0,2013-12-10 11:13:00
5:34 AM,-2.2,-7.6,78,29.84,10.0,Calm,Calm,-,N/A,,Overcast,0,2013-12-10 11:34:00
5:53 AM,-2.2,-7.6,78,29.84,10.0,Calm,Calm,-,N/A,,Scattered Clouds,0,2013-12-10 11:53:00
6:14 AM,-4.0,-9.4,78,29.85,10.0,Calm,Calm,-,N/A,,Clear,0,2013-12-10 12:14:00
6:33 AM,-5.8,-9.4,84,29.86,10.0,Calm,Calm,-,N/A,,Clear,0,2013-12-10 12:33:00
6:53 AM,-5.8,-9.4,84,29.86,10.0,Calm,Calm,-,N/A,,Mostly Cloudy,0,2013-12-10 12:53:00
7:13 AM,-5.8,-11.2,77,29.86,10.0,Calm,Calm,-,N/A,,Scattered Clouds,0,2013-12-10 13:13:00
7:33 AM,-7.6,-11.2,84,29.86,10.0,Calm,Calm,-,N/A,,Clear,0,2013-12-10 13:33:00
7:54 AM,-7.6,-11.2,84,29.87,10.0,Calm,Calm,-,N/A,,Clear,0,2013-12-10 13:54:00
8:13 AM,-5.8,-11.2,77,29.88,10.0,SW,8.1,-,N/A,,Clear,220,2013-12-10 14:13:00
8:33 AM,-5.8,-11.2,77,29.89,10.0,SW,8.1,-,N/A,,Clear,230,2013-12-10 14:33:00
8:54 AM,-4.0,-11.2,71,29.89,10.0,WSW,5.8,-,N/A,,Scattered Clouds,240,2013-12-10 14:54:00
9:13 AM,-2.2,-9.4,71,29.90,10.0,SSW,4.6,-,N/A,,Scattered Clouds,210,2013-12-10 15:13:00
9:33 AM,-2.2,-9.4,71,29.90,10.0,WSW,5.8,-,N/A,,Clear,240,2013-12-10 15:33:00
9:54 AM,-2.2,-9.4,71,29.91,10.0,WSW,10.4,-,N/A,,Clear,250,2013-12-10 15:54:00
10:13 AM,-2.2,-9.4,71,29.92,10.0,SW,9.2,-,N/A,,Clear,220,2013-12-10 16:13:00
10:34 AM,-2.2,-9.4,71,29.92,10.0,SW,9.2,-,N/A,,Clear,230,2013-12-10 16:34:00
10:53 AM,-0.4,-7.6,72,29.92,10.0,SW,10.4,-,N/A,,Clear,220,2013-12-10 16:53:00
11:14 AM,1.4,-7.6,66,29.92,10.0,WSW,11.5,-,N/A,,Clear,240,2013-12-10 17:14:00
11:33 AM,1.4,-5.8,72,29.92,10.0,West,13.8,-,N/A,,Clear,260,2013-12-10 17:33:00
11:53 AM,1.4,-5.8,72,29.92,10.0,WSW,15.0,-,N/A,,Clear,250,2013-12-10 17:53:00
12:14 PM,3.2,-5.8,66,29.93,10.0,West,13.8,-,N/A,,Scattered Clouds,260,2013-12-10 18:14:00
12:33 PM,3.2,-5.8,66,29.93,10.0,WSW,11.5,-,N/A,,Scattered Clouds,250,2013-12-10 18:33:00
12:54 PM,3.2,-5.8,66,29.94,10.0,West,16.1,-,N/A,,Clear,260,2013-12-10 18:54:00
1:13 PM,3.2,-5.8,66,29.95,10.0,SW,12.7,-,N/A,,Scattered Clouds,230,2013-12-10 19:13:00
1:34 PM,3.2,-5.8,66,29.95,10.0,WSW,16.1,-,N/A,,Scattered Clouds,240,2013-12-10 19:34:00
1:53 PM,5.0,-5.8,61,29.96,10.0,WSW,17.3,-,N/A,,Mostly Cloudy,240,2013-12-10 19:53:00
2:13 PM,5.0,-5.8,61,29.96,10.0,WSW,17.3,-,N/A,,Scattered Clouds,250,2013-12-10 20:13:00
2:33 PM,5.0,-5.8,61,29.97,10.0,West,16.1,-,N/A,,Clear,260,2013-12-10 20:33:00
2:53 PM,5.0,-5.8,61,29.98,10.0,West,17.3,-,N/A,,Clear,260,2013-12-10 20:53:00
3:14 PM,5.0,-5.8,61,29.98,10.0,West,19.6,-,N/A,,Clear,260,2013-12-10 21:14:00
3:33 PM,5.0,-5.8,61,29.99,10.0,West,15.0,-,N/A,,Clear,260,2013-12-10 21:33:00
3:54 PM,5.0,-5.8,61,30.00,10.0,WSW,13.8,19.6,N/A,,Clear,250,2013-12-10 21:54:00
4:14 PM,5.0,-5.8,61,30.01,10.0,WSW,12.7,-,N/A,,Clear,250,2013-12-10 22:14:00
4:33 PM,3.2,-5.8,66,30.02,10.0,WSW,11.5,-,N/A,,Clear,250,2013-12-10 22:33:00
4:53 PM,3.2,-5.8,66,30.03,10.0,WSW,13.8,-,N/A,,Clear,250,2013-12-10 22:53:00
5:13 PM,3.2,-5.8,66,30.04,10.0,West,13.8,-,N/A,,Clear,260,2013-12-10 23:13:00
5:34 PM,3.2,-5.8,66,30.04,10.0,West,12.7,-,N/A,,Clear,260,2013-12-10 23:34:00
5:54 PM,3.2,-5.8,66,30.05,10.0,WSW,10.4,-,N/A,,Clear,250,2013-12-10 23:54:00
6:13 PM,3.2,-5.8,66,30.06,10.0,WSW,10.4,-,N/A,,Clear,250,2013-12-11 00:13:00
6:34 PM,3.2,-5.8,66,30.07,10.0,WSW,9.2,-,N/A,,Clear,240,2013-12-11 00:34:00
6:54 PM,3.2,-5.8,66,30.07,10.0,WSW,9.2,-,N/A,,Clear,240,2013-12-11 00:54:00
7:13 PM,1.4,-5.8,72,30.08,10.0,SW,5.8,-,N/A,,Clear,230,2013-12-11 01:13:00
7:34 PM,1.4,-5.8,72,30.09,10.0,WSW,4.6,-,N/A,,Clear,240,2013-12-11 01:34:00
7:54 PM,-0.4,-5.8,78,30.10,10.0,South,4.6,-,N/A,,Clear,190,2013-12-11 01:54:00
8:13 PM,-0.4,-5.8,78,30.11,10.0,South,3.5,-,N/A,,Clear,190,2013-12-11 02:13:00
8:34 PM,-0.4,-5.8,78,30.12,10.0,South,5.8,-,N/A,,Clear,180,2013-12-11 02:34:00
8:53 PM,-0.4,-5.8,78,30.13,10.0,SSW,5.8,-,N/A,,Mostly Cloudy,200,2013-12-11 02:53:00
9:14 PM,-0.4,-5.8,78,30.14,10.0,SSW,5.8,-,N/A,,Overcast,210,2013-12-11 03:14:00
9:34 PM,-0.4,-5.8,78,30.15,10.0,SW,6.9,-,N/A,,Scattered Clouds,230,2013-12-11 03:34:00
9:53 PM,-0.4,-7.6,72,30.16,10.0,West,8.1,-,N/A,,Clear,260,2013-12-11 03:53:00
10:14 PM,-0.4,-7.6,72,30.17,10.0,West,12.7,-,N/A,,Clear,280,2013-12-11 04:14:00
10:33 PM,-0.4,-9.4,66,30.19,10.0,West,10.4,-,N/A,,Clear,280,2013-12-11 04:33:00
10:53 PM,-0.4,-9.4,66,30.20,10.0,West,12.7,-,N/A,,Clear,280,2013-12-11 04:53:00
11:14 PM,-2.2,-9.4,71,30.21,10.0,West,11.5,-,N/A,,Clear,280,2013-12-11 05:14:00
11:33 PM,-2.2,-9.4,71,30.23,10.0,West,9.2,-,N/A,,Clear,270,2013-12-11 05:33:00
11:54 PM,-2.2,-11.2,66,30.24,10.0,West,10.4,-,N/A,,Clear,260,2013-12-11 05:54:00